{"data":{"norad_id":62628,"intl_designator":"2025-009V","name":"ION SCV-016","alt_names":[],"object_type":"PAYLOAD","status":"ACTIVE","operator":null,"country":"IT","launch_date":"2025-01-14","launch_site_code":"AFWTR","launch_vehicle":null,"mission":null,"orbit_class":"UNKNOWN","rcs_meters":null,"size_class":null,"mass_kg":null,"dimensions":null,"purposes":[],"wikipedia_slug":null,"has_3d_model":false,"image_url":null,"decayed_at":null,"tle_current":{"epoch":"2026-09-22T14:44:35.791296Z","epoch_age_seconds":134914,"freshness":"FRESH","line1":"1 62628U 25009V   26265.61430314  .00018037  00000+0  37095-3 0  9998","line2":"2 62628  97.4225 293.2181 0574551 157.3772 205.3892 14.54531757 89693","mean_motion":14.54531757,"eccentricity":0.0574551,"inclination_deg":97.4225,"raan_deg":293.2181,"arg_perigee_deg":157.3772,"mean_anomaly_deg":205.3892,"bstar":0.00037095,"rev_number":8969,"period_min":99.000932297967,"perigee_km":303.58523032419,"apogee_km":1118.186251274,"semimajor_km":7089.0227407991,"source":"CELESTRAK","updated_at":"2026-09-23T09:00:21.532610Z"}}}